Home   Weather   Buenos Aires   Past weeks

Flag for Argentina Past Weather in Buenos Aires, Argentina — Yesterday and Last 2 Weeks

Now
55 °F

Passing clouds.


Feels Like: 54 °F
Forecast: 57 / 66 °F
Wind: 6 mph from Northeast

Location: Buenos Aires Airport

Current Time: Oct 1, 2016 at 7:32:21 AM

Latest Report: Oct 1, 2016 at 7:00 AM


Visibility: N/A

Pressure: 30.27 "Hg

Humidity: 77%

Dew Point: 48 °F

Location of Buenos AiresLocation

Past Weather in Buenos Aires — Graph

°F

Buenos Aires Temperature Yesterday

Maximum temperature yesterday: 59 °F (at 1:00 PM)
Minimum temperature yesterday: 54 °F (at 5:00 AM)
Average temperature yesterday: 57 °F

High & Low Weather Summary for the Past Weeks

 TemperatureHumidityPressure
High81 °F (Sep 22, 5:00 PM)88% (Sep 16, 7:00 AM)30.39 "Hg (Sep 16, 7:00 AM)
Low45 °F (Sep 24, 5:00 AM)32% (Sep 24, 3:00 PM)29.89 "Hg (Sep 17, 4:00 AM)
Average59 °F69%30.16 "Hg
* Reported Sep 16 6:00 AM — Oct 1 6:00 AM, Buenos Aires, Weather by CustomWeather, © 2016

Note: Actual official high and low records may vary slightly from our data, if they occured in-between our weather recording intervals... More about our weather records

Advertising

Buenos Aires Weather History for the Previous 24 Hours

Scroll right to see more
 ConditionsComfort  
Time TempWeatherWind HumidityBarometerVisibility
6:00 AM
Sat, Oct 1
55 °FPassing clouds.7 mph77%30.27 "HgN/A
5:00 AM55 °FClear.12 mph77%30.24 "Hg10 mi
3:00 AM57 °FClear.13 mph72%30.21 "Hg10 mi
2:00 AM57 °FClear.14 mph77%30.21 "Hg10 mi
1:00 AM59 °FClear.14 mph72%30.21 "Hg10 mi
12:00 AM59 °FClear.14 mph72%30.18 "Hg10 mi
11:00 PM
Fri, Sep 30
59 °FClear.14 mph82%30.18 "Hg10 mi
10:00 PM59 °FClear.16 mph82%30.18 "Hg10 mi
9:00 PM59 °FClear.20 mph77%30.18 "Hg10 mi
8:00 PM59 °FClear.20 mph77%30.15 "Hg10 mi
7:00 PM59 °FClear.21 mph77%30.15 "Hg10 mi
6:00 PM59 °FSunny.17 mph77%30.15 "Hg10 mi
5:00 PM59 °FSunny.17 mph72%30.18 "Hg10 mi
4:00 PM59 °FSunny.14 mph72%30.18 "Hg10 mi
3:00 PM59 °FPartly sunny.10 mph72%30.21 "HgN/A
2:00 PM59 °FPartly sunny.9 mph72%30.21 "HgN/A
1:00 PM59 °FPartly sunny.9 mph72%30.21 "HgN/A
12:00 PM57 °FOvercast.14 mph72%30.18 "HgN/A
11:00 AM57 °FDrizzle. More clouds than sun.10 mph67%30.21 "Hg6 mi
10:00 AM55 °FSunny.15 mph72%30.21 "Hg10 mi
9:00 AM54 °FSunny.17 mph77%30.18 "Hg10 mi
8:00 AM54 °FSunny.17 mph77%30.18 "Hg10 mi
7:00 AM54 °FSunny.20 mph77%30.15 "Hg10 mi
Weather by CustomWeather, © 2016

See weather overviewHow to use our weather pages